Regional Weather Roundup
Issued by NWS

Home | Current Version | Previous Version | Graphics & Text | Print | Product List | Glossary On
Versions: 1 2 3 4 5 6 7 8 9 10 11 12 13 14 15 16 17 18 19 20 21 22 23 24 25 26 27
000
ASUS45 KBOU 230107
RWRCO

WEATHER ROUNDUP FOR COLORADO
NATIONAL WEATHER SERVICE DENVER/BOULDER CO
700 PM MDT FRI SEP 22 2017

NOTE: "FAIR" INDICATES FEW OR NO CLOUDS BELOW 12000 FEET WITH NO
SIGNIFICANT WEATHER AND/OR OBSTRUCTIONS TO VISIBILITY.

COZ001>005-013-030-031-230200-
...NORTHWEST COLORADO...

CITY           SKY/WX    TMP DP  RH WIND       PRES   REMARKS
CRAIG          FAIR      57  37  47 VRB3      29.85R
HAYDEN         FAIR      59  36  42 E7        29.89S
MEEKER         FAIR      62  29  28 S5        29.84S
RABBIT EARS PA CLOUDY    45  32  61 S5        30.10S
STEAMBOAT SPGS FAIR      58  36  44 CALM      29.89S
WALDEN         CLOUDY    46  39  76 SW6       30.01R
$$

COZ006>008-011-230200-
...WEST CENTRAL VALLEYS...

CITY           SKY/WX    TMP DP  RH WIND       PRES   REMARKS
GRAND JUNCTION FAIR      72  29  20 SW14G29   29.75R
MONTROSE       MOCLDY    66  39  37 N3        29.84R
EAGLE          FAIR      61  36  39 SW12G21   29.94R
RIFLE          FAIR      65  35  33 W13       29.81R
DELTA          NOT AVBL
NUCLA          MOCLDY    70  28  21 SW17G36   29.86S
$$

COZ017>023-064>068-230200-
...SOUTHWEST COLORADO...

CITY           SKY/WX    TMP DP  RH WIND       PRES   REMARKS
DURANGO        FAIR      68  24  19 SW15G23   29.92R
CORTEZ         FAIR      68  29  23 S14       29.85S
PAGOSA SPRINGS FAIR      60  40  48 CALM      29.99F
TELLURIDE      CLOUDY    55  31  39 SE16G22   30.05R
WOLF CREEK PAS CLOUDY    37  36  93 SW7G16    30.28R
$$

COZ009-010-012-014-032>034-037-058>063-230200-
...CENTRAL COLORADO...

CITY           SKY/WX    TMP DP  RH WIND       PRES   REMARKS
ASPEN          FAIR      54  37  52 N6        29.95S
BUENA VISTA    FAIR      59  35  40 SE12G21   30.00R
COPPER MTN     MOCLDY    46  23  39 S22G38    30.20R
BERTHOUD PASS  FAIR      37  30  75 S25G35    30.25R
COTTONWOOD PAS MOCLDY    59  32  36 SW10G21   30.11R
GUNNISON       FAIR      56  36  47 S8        29.98R
KREMMLING      FAIR      59  41  51 S5        29.97R
LEADVILLE      LGT RAIN  50  29  44 S15       30.07S
MONARCH PASS   CLOUDY    41  34  75 SW30G38   30.34S
SALIDA         FAIR      65  33  30 SW7       30.06R
SUNLIGHT       FAIR      37  32  81 S18G29    30.11F
WILKERSON PASS MOCLDY    45  30  57 SW12G20   30.24S
$$

COZ069>075-230200-
...SAN LUIS VALLEY/SANGRE DE CRISTO MOUNTAINS...

CITY           SKY/WX    TMP DP  RH WIND       PRES   REMARKS
ALAMOSA        FAIR      54  47  77 W12       30.01R
DEL NORTE      MOCLDY    56  40  55 W7        30.03S
LA VETA PASS   FAIR      54  30  40 S17       30.27S
SAGUACHE       FAIR      61  36  39 SW12      30.03F
$$

COZ035-036-038>040-230200-
...NORTHERN COLORADO FRONT RANGE...

CITY           SKY/WX    TMP DP  RH WIND       PRES   REMARKS
DENVER INTL AP LGT RAIN  63  41  44 N20       29.86R
DMNS CITY PARK   N/A     61  42  48 N10G18    29.89R
AURORA         MOCLDY    60  44  54 NW15      29.89R
FRONT RANGE AP MOCLDY    64  45  48 N16G28    29.87R
ERIE MUNI ARPT FAIR      60  42  51 N7        29.93R
BOULDER MUN AP FAIR      61  39  44 NE7       29.88R
CENTENNIAL     MOCLDY    63  43  48 N8        29.90R
BROOMFIELD     MOCLDY    61  41  48 N14       29.90R
FORT COLLINS   FAIR      63  40  42 N12       29.89R
LONGMONT       LGT RAIN  64  42  45 N6        29.88S
$$

COZ041-046-047-076>085-087-088-230200-
...PIKES PEAK/PALMER DIVIDE AND SOUTHERN FOOTHILLS...

CITY           SKY/WX    TMP DP  RH WIND       PRES   REMARKS
COLO. SPRINGS  MOCLDY    76  31  19 SW22G28   29.87R
A. F. ACADEMY  MOCLDY    73  30  20 S13       29.89R
SCHRIEVER AFB  FAIR      72  28  19 S10       29.89R
CHEYENNE MTN   FAIR      71  29  20 S13G20    29.87R
ELLICOTT         N/A    N/A N/A N/A SW14      29.86R
FALCON         FAIR      72  25  17 SW16G22   29.93R
FORT CARSON    FAIR      76  31  19 SW15G23   29.83R
LIMON            N/A    N/A N/A N/A MISG      29.82R
MONUMENT HILL  CLOUDY    61  37  41 N7        29.95R
CANON CITY     PTCLDY    79  37  22 SW8       29.85R
WALSENBURG     FAIR      73  32  21 SW7       29.87S
TRINIDAD       FAIR      77  35  21 S16G24    29.86S
$$

COZ042>045-048>051-090-091-230200-
...NORTHEAST COLORADO...

CITY           SKY/WX    TMP DP  RH WIND       PRES   REMARKS
GREELEY ARPT   FAIR      64  41  42 NW16      29.86R
AKRON          FAIR      79  33  19 S12       29.77R
BURLINGTON     FAIR      82  40  22 S15       29.78S
WRAY           FAIR      79  34  19 SE8       29.73S
YUMA           FAIR      72  39  30 SE6       29.74S
STERLING       FAIR      68  46  45 NE15G21   29.77S
HOLYOKE        FAIR      72  45  37 E7        29.76R
FORT MORGAN    FAIR      66  42  40 N20       29.79R
$$

COZ086-089-092>099-230200-
...SOUTHEAST COLORADO...

CITY           SKY/WX    TMP DP  RH WIND       PRES   REMARKS
PUEBLO         FAIR      82  34  17 SW8       29.76S
LA JUNTA       FAIR      85  35  16 S13       29.76S
LAMAR          FAIR      84  55  36 S17       29.74R
SPRINGFIELD      N/A     75  61  61 SE24G32   29.84R
$$




USA.gov is the U.S. government's official web portal to all federal, state and local government web resources and services.